SCP
0 0 0 0 0 0 0 0 0 0 0 0 0 0 0 0 0 0 0 0 0 0 0 0 0 0 0 0 0 0 0 0 0 0 0 0 0 0 0 0 0 0 0 0
0 0 0 0 0 0 0 0 0 0 0 0 0 0 0 0 0 0 0 0 0 0 0 0 0 0 0 0 0 0 0 0 0 0 0 0 0 0 0 0 0 0 0 0
0 0 0 0 0 0 0 0 0 0 0 0 0 0 0 0 0 0 0 0 0 0 0 0 0 0 0 0 0 0 0 0 0 0 0 0 0 0 0 0 0 0 0 0
0 0 0 0 0 0 0 0 0 0 0 0 0 0 0 0 0 0 0 0 0 0 0 0 0 0 0 0 0 0 0 0 0 0 0 0 0 0 0 0 0 0 0 0
0 0 0 0 0 0 0 0 0 0 0 0 0 0 0 0 0 0 0 0 0 0 0 0 0 0 0 0 0 0 0 0 0 0 0 0 0 0 0 0 0 0 0 0
0 0 0 0 0 0 0 0 0 0 0 0 0 0 0 0 0 0 0 0 0 0 0 0 0 0 0 0 0 0 0 0 0 0 0 0 0 0 0 0 0 0 0 0
0 0 0 0 0 0 0 0 0 0 0 0 0 0 0 0 0 0 0 0 0 0 0 0 0 0 0 0 0 0 0 0 0 0 0 0 0 0 0 0 0 0 0 0
0 0 0 0 0 0 0 0 0 0 0 0 0 0 0 0 0 0 0 0 0 0 0 0 0 0 0 0 0 0 0 0 0 0 0 0 0 0 0 0 0 0 0 0
0 0 0 0 0 0 0 0 0 0 0 0 0 0 0 0 0 0 0 0 0 0 0 0 0 0 0 0 0 0 0 0 0 0 0 0 0 0 0 0 0 0 0 0
0 0 0 0 0 0 0 0 0 0 0 0 0 0 0 0 0 0 0 0 0 0 0 0 0 0 0 0 0 0 0 0 0 0 0 0 0 0 0 0 0 0 0 0
0 0 0 0 0 0 0 0 0 0 0 0 0 0 0 0 0 0 0 0 0 0 0 0 0 0 0 0 0 0 0 0 0 0 0 0 0 0 0 0 0 0 0 0
0 0 0 0 0 0 0 0 0 0 0 0 0 0 0 0 0 0 0 0 0 0 0 0 0 0 0 0 0 0 0 0 0 0 0 0 0 0 0 0 0 0 0 0
0 0 0 0 0 0 0 0 0 0 0 0 0 0 0 0 0 0 0 0 0 0 0 0 0 0 0 0 1 0 0 0 0 0 0 0 0 0 0 0 0 0 0 0
0 0 0 0 0 0 0 0 0 0 0 0 0 0 0 0 0 0 0 0 0 0 0 0 0 0 0 1 1 1 0 0 0 0 0 0 0 0 0 0 0 0 0 0
0 0 0 0 0 0 0 0 0 0 0 0 0 0 0 0 0 0 0 0 0 0 0 0 0 0 1 1 1 1 1 1 1 1 0 0 0 0 0 0 0 0 0 0
0 0 0 0 0 0 0 0 0 0 0 0 0 0 0 0 0 0 0 0 0 0 0 0 0 0 1 1 1 1 1 1 1 1 1 0 0 0 0 0 0 0 0 0
0 0 0 0 0 0 0 0 0 0 0 0 0 0 0 0 0 0 0 0 0 0 0 0 0 0 1 1 1 1 1 1 1 1 1 0 0 0 0 0 0 0 0 0
0 0 0 0 0 0 0 0 0 0 0 0 0 0 0 0 0 0 0 0 0 1 1 1 0 0 1 1 1 1 1 1 1 1 1 0 0 0 0 0 0 0 0 0
0 0 0 0 0 0 0 0 0 0 0 0 0 0 0 0 0 0 0 0 0 1 1 1 0 0 0 1 1 1 1 1 1 1 1 0 0 0 0 0 0 0 0 0
0 0 0 0 0 0 0 0 0 0 0 0 0 0 0 0 0 0 0 0 0 1 1 1 1 1 1 0 1 1 1 1 1 1 1 0 0 0 0 0 0 0 0 0
0 0 0 0 0 0 0 0 0 0 0 0 0 0 0 0 0 0 0 1 1 1 1 1 1 1 1 0 1 1 1 1 1 1 1 1 0 0 0 0 0 0 0 0
0 0 0 0 0 0 0 0 0 0 0 0 0 0 0 0 0 0 1 1 1 1 1 1 1 1 1 0 1 1 1 1 1 1 1 1 1 1 0 0 0 0 0 0
0 0 0 0 0 0 0 0 0 0 0 0 0 0 0 0 0 1 1 1 1 1 1 1 1 1 1 1 1 1 1 1 1 1 1 1 1 1 0 0 0 0 0 0
0 0 0 0 0 0 0 0 0 0 0 0 0 0 0 0 1 1 1 1 1 1 1 1 1 1 1 1 1 1 1 1 1 1 1 1 1 1 0 0 0 0 0 0
0 0 0 0 0 0 0 0 0 0 0 0 0 0 0 1 1 1 1 1 1 1 1 1 1 1 1 1 0 0 1 1 1 1 1 1 1 1 0 0 0 0 0 0
0 0 0 0 0 0 0 0 0 0 0 1 0 1 1 1 0 1 1 1 1 1 1 1 1 1 1 0 0 0 1 1 1 1 1 1 1 1 0 0 0 0 0 0
Wind_Speed
4 6 3 5 5 5 6 5 3 3 2 4 3 2 4 7 7 7 7 7 7 7 6 5 6 6 6 5 4 4 4 3 3 2 1 1 1 1 1 1 2 2 2 2
6 0 3 4 4 5 6 4 1 1 2 3 2 1 3 7 9 8 9 9 9 6 5 6 6 6 7 6 6 5 4 4 3 2 2 2 1 1 1 1 1 1 2 2
4 3 3 4 5 5 3 5 5 3 3 4 4 3 1 3 4 5 6 7 8 10 9 8 8 7 7 7 7 6 5 5 4 3 2 1 1 1 1 1 1 1 1 2
2 2 3 4 4 6 3 4 6 5 5 1 2 2 6 3 4 7 8 9 9 10 9 8 9 9 9 8 7 6 5 4 4 4 3 3 2 2 2 1 1 1 1 1
2 2 3 3 4 6 4 4 5 5 5 3 2 1 8 1 5 10 11 11 11 10 10 10 11 10 9 8 7 6 5 4 4 4 5 4 3 2 1 1 1 1 1 1
3 2 3 4 2 4 7 8 8 7 6 1 2 3 7 5 8 7 9 11 11 10 10 10 9 7 7 6 6 6 5 4 4 4 4 4 4 3 2 2 1 1 1 1
1 2 1 2 4 3 6 8 5 4 4 5 2 3 10 7 7 8 8 10 10 9 10 10 10 9 9 8 8 6 6 5 5 5 4 4 4 3 3 2 2 2 1 1
4 4 3 2 6 6 4 9 9 6 5 4 1 5 9 5 5 6 6 6 7 8 9 10 11 10 10 9 8 7 7 6 5 5 4 3 3 2 2 2 2 2 1 2
7 5 3 2 3 10 7 3 6 9 3 1 4 7 9 2 2 1 3 4 6 8 9 9 9 9 8 9 8 8 7 6 5 5 4 3 3 2 2 1 1 1 1 0
8 3 3 1 5 5 6 10 7 7 6 2 4 4 5 4 4 3 3 5 5 6 7 8 8 8 8 7 6 6 6 6 5 4 4 3 2 2 2 1 1 1 1 1
5 5 2 2 4 6 5 5 6 6 6 7 3 8 7 8 7 7 6 5 5 6 7 7 7 7 7 6 6 6 5 4 4 4 3 3 2 2 2 2 2 1 1 2
4 6 1 4 3 2 5 7 8 7 4 4 5 9 6 6 6 6 5 4 4 5 5 5 6 6 7 7 6 6 6 4 4 4 4 3 2 3 3 2 1 2 2 2
7 7 4 4 5 2 3 4 5 7 7 5 5 8 4 1 1 3 4 3 4 4 4 5 5 6 7 7 6 6 6 5 4 5 5 4 3 3 3 2 2 3 3 3
8 6 8 10 8 5 3 4 5 7 6 5 7 7 6 3 2 3 3 4 4 5 5 5 5 5 6 6 6 6 6 5 5 5 5 4 4 3 3 3 3 3 4 3
6 5 4 4 4 4 4 6 7 6 9 9 8 8 9 7 6 4 4 4 5 5 5 6 6 5 6 6 6 6 6 5 6 6 5 4 4 4 3 3 4 4 4 3
4 5 4 1 1 3 3 5 8 6 6 5 4 8 7 3 3 4 5 6 6 6 6 6 6 6 7 7 7 7 6 6 6 7 6 5 4 4 4 4 4 4 3 3
2 6 5 3 1 2 3 6 7 5 5 8 8 9 3 3 7 9 9 8 8 7 6 7 7 7 7 7 7 7 7 7 7 6 6 5 5 5 4 4 4 3 3 3
7 5 4 4 3 5 9 4 5 6 5 6 5 5 7 7 6 5 5 7 7 6 6 6 5 5 5 5 6 6 7 7 7 6 5 5 5 5 4 4 4 3 2 3
6 9 5 5 4 4 5 2 5 5 4 5 5 4 3 2 3 1 4 5 6 6 5 5 5 5 5 6 7 8 7 7 7 6 6 5 6 6 5 5 4 3 3 3
4 5 7 5 5 7 8 3 2 4 3 4 6 6 6 7 3 6 5 5 4 4 5 5 5 5 6 6 7 9 8 8 7 7 6 6 6 6 6 5 4 3 3 3
4 4 5 5 4 7 6 4 2 5 8 4 6 7 9 8 8 5 5 4 5 5 5 6 6 5 5 7 7 7 8 8 7 6 6 6 5 6 5 5 4 4 4 4
6 6 5 5 4 7 3 2 6 7 3 3 5 7 7 5 3 3 5 5 5 5 5 6 5 4 5 6 8 7 7 7 6 7 6 6 5 5 5 6 5 4 5 4
4 6 7 8 7 5 2 4 4 3 3 3 4 4 6 4 3 3 4 5 5 5 5 4 4 4 4 5 7 8 6 6 7 7 7 6 6 5 5 6 6 4 4 3
1 1 3 1 4 3 3 2 2 2 3 3 3 4 5 5 5 4 4 4 4 4 5 5 5 4 3 4 4 5 6 7 8 8 7 6 6 5 4 4 4 4 4 4
2 1 2 1 3 2 3 2 2 1 0 1 2 2 4 6 4 4 4 4 4 3 4 5 6 6 5 4 4 5 7 8 8 8 7 6 6 6 5 4 3 4 4 4
2 4 4 5 5 4 4 3 1 0 1 2 3 3 2 4 4 4 3 3 4 4 4 5 5 5 4 5 5 5 7 8 9 8 7 6 5 5 5 4 2 2 2 3
Wind_Direction
36 77 132 180 173 161 150 146 179 223 184 135 177 202 192 180 189 194 195 196 203 205 197 180 172 168 161 170 175 180 178 177 154 138 148 158 220 242 241 239 239 229 216 203
48 108 203 162 142 126 129 126 159 25 88 126 150 249 203 192 205 201 198 200 204 202 189 182 176 175 176 183 187 188 191 187 183 173 167 174 178 203 208 254 283 242 224 213
156 219 160 133 129 125 144 166 179 157 77 53 86 348 254 219 208 213 209 203 202 201 196 188 183 185 185 191 192 194 195 193 191 173 134 101 72 35 29 335 296 285 247 227
189 228 138 138 160 143 197 205 153 134 109 24 98 263 280 231 220 221 218 208 206 204 198 190 187 188 191 196 191 193 191 188 188 170 164 166 171 196 221 223 248 288 286 272
215 169 141 167 191 157 171 101 106 105 108 68 39 141 285 260 236 235 223 215 210 200 196 194 194 194 191 187 184 186 182 187 186 180 180 179 189 198 201 207 240 276 290 282
225 222 186 184 131 136 120 77 59 51 69 56 239 160 276 234 221 233 220 212 209 197 196 193 193 185 183 181 180 175 180 195 188 183 186 187 191 192 199 219 234 258 275 285
336 316 277 145 101 64 97 93 53 19 22 251 262 194 249 249 232 224 218 209 207 195 192 188 184 185 185 184 183 178 184 197 192 184 191 198 194 192 205 218 222 238 267 280
153 262 245 181 161 158 155 134 151 175 199 265 314 236 255 264 257 234 218 202 195 192 192 191 188 186 188 185 182 182 187 195 192 189 192 193 190 190 208 214 214 222 235 249
161 232 281 225 160 133 130 144 151 125 136 114 276 283 299 294 320 243 195 179 190 193 190 187 182 182 183 182 185 185 185 188 191 188 181 180 186 192 206 213 205 223 237 210
147 182 278 282 82 39 130 141 106 112 135 200 285 275 251 260 246 237 215 203 200 190 184 178 177 179 179 177 173 168 172 178 182 168 173 179 180 187 190 166 161 134 95 66
124 139 303 53 156 162 109 95 103 108 140 149 206 265 231 222 218 216 222 211 192 185 183 180 175 172 167 160 160 164 167 166 165 163 162 162 160 149 133 133 136 135 105 88
134 120 186 254 265 181 147 154 144 144 178 159 162 261 271 234 226 213 218 204 180 176 173 166 159 154 156 160 162 164 167 164 171 159 153 154 136 125 127 126 120 112 103 91
137 115 94 355 347 24 107 129 131 119 115 144 160 259 305 335 212 204 193 183 169 155 148 147 149 156 162 162 165 167 171 167 164 154 152 146 138 133 131 122 103 101 99 89
120 118 157 185 206 183 157 147 146 123 136 176 210 243 288 283 235 208 183 168 157 154 151 148 155 163 162 162 164 165 164 160 153 144 144 146 150 145 134 120 109 102 100 96
117 145 179 208 208 174 172 175 172 166 170 173 217 224 244 232 216 203 183 163 155 161 164 165 163 166 164 162 164 164 160 154 150 143 147 152 142 127 118 112 108 104 102 100
86 145 148 200 225 180 180 190 184 184 174 190 201 243 245 220 166 176 184 176 177 179 180 178 171 167 171 172 170 166 161 155 149 148 150 143 134 129 125 122 115 108 102 97
108 127 130 201 256 91 237 207 185 185 188 171 195 228 201 181 196 196 193 188 193 192 185 181 183 182 179 174 168 169 162 150 147 148 146 144 142 140 141 135 121 116 112 104
138 120 127 142 126 207 240 231 186 178 204 196 207 219 198 204 207 200 189 185 194 191 184 182 178 177 169 160 155 150 145 147 148 147 149 152 151 148 142 135 131 122 111 104
152 135 121 129 164 249 287 224 172 162 234 213 204 210 189 135 81 288 210 192 196 187 174 173 172 166 158 156 153 143 144 148 149 156 162 161 157 155 153 153 149 140 129 111
82 106 116 127 149 210 235 254 212 125 254 235 191 181 157 127 151 241 215 184 169 158 157 156 149 143 148 154 150 147 152 156 167 172 171 161 156 156 160 158 148 139 131 123
85 75 120 144 177 245 248 271 130 160 230 230 189 183 168 179 203 211 169 162 153 155 156 150 146 148 157 151 151 158 160 172 175 163 153 151 155 156 153 142 137 136 127 120
154 141 160 145 163 241 262 133 167 213 247 216 195 189 186 199 195 150 147 149 146 141 146 151 148 154 152 151 154 167 179 172 157 150 149 151 152 153 146 140 137 135 134 130
175 179 176 179 201 231 242 218 241 215 224 225 195 187 176 181 183 160 152 152 149 146 147 143 146 148 147 155 164 174 179 154 147 148 153 153 148 145 147 149 147 140 141 144
267 142 135 192 249 256 262 265 279 241 228 231 190 171 169 173 167 155 151 154 149 153 152 140 140 153 164 166 170 171 154 149 150 155 157 155 153 149 143 144 150 154 160 162
217 156 125 208 265 306 308 303 311 329 46 105 103 135 163 154 157 163 162 162 158 154 159 158 162 175 184 173 170 161 156 152 154 158 160 159 160 157 151 150 161 172 181 185
204 178 168 210 219 193 243 282 303 73 124 140 115 94 126 153 160 163 165 167 160 159 160 161 165 168 173 167 164 163 162 160 159 162 166 167 165 162 160 155 137 98 157 178